Total_Precipitation_Accumulation
0.23 0.24 0.26 0.24 0.25 0.26 0.28 0.38 0.53 0.37 0.10 0.03 0.05 0.06 0.09 0.13 0.17 0.17 0.17 0.20 0.27 0.34 0.37 0.40 0.45 0.54 0.85 1.51 2.47 3.13 3.00 2.33 1.60 1.20 1.18 1.39 1.77 2.14
0.28 0.30 0.31 0.31 0.31 0.30 0.32 0.32 0.40 0.48 0.29 0.05 0.06 0.07 0.09 0.12 0.17 0.18 0.19 0.20 0.22 0.27 0.32 0.34 0.38 0.46 0.61 0.90 1.49 2.39 2.97 2.90 2.29 1.68 1.43 1.49 1.67 2.08
0.30 0.34 0.35 0.35 0.35 0.33 0.34 0.35 0.34 0.40 0.39 0.10 0.04 0.07 0.13 0.16 0.18 0.18 0.19 0.18 0.16 0.20 0.26 0.32 0.36 0.42 0.53 0.70 0.96 1.53 2.38 2.88 2.86 2.36 1.93 1.72 1.64 1.75
0.44 0.43 0.44 0.45 0.47 0.45 0.45 0.41 0.36 0.34 0.40 0.25 0.07 0.06 0.13 0.20 0.26 0.26 0.22 0.19 0.16 0.16 0.21 0.27 0.33 0.38 0.48 0.59 0.75 1.02 1.59 2.32 2.78 2.73 2.32 1.93 1.71 1.71
0.72 0.71 0.68 0.65 0.66 0.64 0.62 0.55 0.44 0.35 0.35 0.33 0.17 0.09 0.13 0.23 0.33 0.35 0.30 0.23 0.17 0.18 0.21 0.24 0.29 0.33 0.38 0.48 0.60 0.75 1.01 1.42 2.03 2.56 2.71 2.39 1.99 1.79
0.82 0.86 0.91 0.93 0.93 0.89 0.87 0.72 0.56 0.47 0.40 0.39 0.28 0.18 0.16 0.23 0.41 0.46 0.41 0.33 0.24 0.20 0.23 0.24 0.28 0.33 0.34 0.36 0.39 0.52 0.77 1.13 1.54 2.08 2.59 2.70 2.36 2.04
0.58 0.61 0.73 0.89 1.01 1.09 1.12 0.97 0.82 0.75 0.63 0.53 0.42 0.31 0.25 0.31 0.46 0.52 0.56 0.51 0.43 0.34 0.27 0.22 0.23 0.25 0.26 0.30 0.37 0.46 0.62 0.82 1.08 1.48 2.02 2.50 2.55 2.33
0.37 0.38 0.43 0.58 0.70 0.81 0.95 1.00 1.04 1.09 0.99 0.80 0.61 0.46 0.35 0.35 0.43 0.60 0.65 0.69 0.65 0.50 0.42 0.35 0.31 0.28 0.26 0.24 0.29 0.36 0.49 0.66 0.85 1.10 1.43 1.90 2.30 2.40
0.21 0.22 0.23 0.31 0.44 0.49 0.57 0.68 0.82 0.97 1.08 1.05 0.95 0.71 0.51 0.43 0.50 0.61 0.67 0.71 0.67 0.63 0.63 0.61 0.53 0.42 0.35 0.33 0.37 0.36 0.41 0.52 0.66 0.84 1.04 1.35 1.76 2.15
0.16 0.14 0.13 0.18 0.32 0.43 0.53 0.53 0.54 0.69 0.93 1.10 1.19 1.02 0.76 0.63 0.70 0.79 0.85 0.82 0.77 0.82 0.86 0.85 0.72 0.58 0.53 0.49 0.46 0.40 0.38 0.42 0.52 0.65 0.80 0.99 1.27 1.67
0.13 0.14 0.12 0.11 0.27 0.39 0.41 0.37 0.34 0.45 0.58 0.80 0.96 0.96 0.87 0.81 0.85 1.01 1.04 1.04 1.02 1.02 1.06 1.06 0.95 0.76 0.71 0.72 0.65 0.52 0.42 0.40 0.44 0.53 0.64 0.76 0.94 1.30
0.10 0.11 0.17 0.21 0.28 0.31 0.30 0.31 0.33 0.35 0.34 0.39 0.46 0.56 0.62 0.66 0.81 1.01 1.07 1.07 1.08 1.22 1.21 1.12 1.16 1.05 1.03 0.94 0.77 0.55 0.45 0.45 0.47 0.49 0.54 0.61 0.74 0.93
0.12 0.13 0.15 0.21 0.24 0.23 0.23 0.27 0.36 0.30 0.23 0.27 0.32 0.38 0.47 0.55 0.64 0.84 1.04 1.10 1.12 1.17 1.18 1.13 1.27 1.16 1.07 1.05 0.91 0.70 0.48 0.41 0.43 0.53 0.58 0.62 0.67 0.69
0.15 0.10 0.11 0.14 0.15 0.17 0.20 0.25 0.25 0.24 0.27 0.28 0.29 0.30 0.38 0.49 0.59 0.69 0.86 0.98 1.04 1.08 1.06 1.07 1.24 1.19 1.00 0.88 0.88 0.87 0.67 0.52 0.44 0.45 0.50 0.70 0.78 0.77
0.26 0.20 0.12 0.11 0.12 0.11 0.14 0.19 0.20 0.23 0.30 0.31 0.27 0.25 0.31 0.43 0.50 0.59 0.67 0.76 0.86 0.95 1.03 1.05 1.15 1.24 1.11 0.89 0.75 0.79 0.82 0.76 0.57 0.50 0.50 0.54 0.61 0.67
0.25 0.19 0.12 0.11 0.09 0.07 0.07 0.09 0.13 0.19 0.25 0.26 0.23 0.21 0.24 0.32 0.41 0.52 0.63 0.69 0.77 0.86 1.01 1.11 1.22 1.37 1.30 0.99 0.82 0.77 0.72 0.81 0.73 0.54 0.51 0.54 0.55 0.51
0.25 0.20 0.15 0.13 0.13 0.11 0.08 0.07 0.08 0.12 0.17 0.20 0.20 0.22 0.25 0.29 0.37 0.46 0.62 0.70 0.77 0.81 0.98 1.21 1.31 1.42 1.46 1.33 1.12 0.89 0.72 0.65 0.67 0.57 0.52 0.60 0.68 0.61
0.27 0.24 0.16 0.12 0.11 0.11 0.10 0.08 0.08 0.09 0.11 0.16 0.20 0.22 0.26 0.31 0.36 0.43 0.56 0.69 0.76 0.78 0.89 1.13 1.31 1.47 1.62 1.65 1.45 1.07 0.83 0.70 0.70 0.65 0.55 0.58 0.74 0.78
0.22 0.18 0.12 0.11 0.11 0.10 0.10 0.10 0.09 0.07 0.09 0.14 0.18 0.19 0.23 0.28 0.34 0.41 0.50 0.61 0.70 0.77 0.85 1.01 1.24 1.43 1.54 1.65 1.76 1.43 1.07 0.86 0.82 0.83 0.72 0.57 0.59 0.70
0.16 0.16 0.13 0.11 0.11 0.12 0.11 0.11 0.10 0.09 0.10 0.12 0.14 0.16 0.21 0.27 0.31 0.36 0.45 0.57 0.66 0.74 0.82 0.93 1.17 1.37 1.42 1.34 1.44 1.59 1.52 1.16 0.92 0.92 0.88 0.75 0.70 0.84
0.12 0.12 0.12 0.12 0.12 0.12 0.11 0.11 0.11 0.10 0.09 0.10 0.11 0.13 0.17 0.22 0.26 0.30 0.37 0.48 0.59 0.68 0.75 0.83 1.03 1.25 1.39 1.31 1.23 1.35 1.59 1.61 1.20 0.93 0.84 0.84 0.86 0.92
0.12 0.13 0.12 0.12 0.13 0.13 0.13 0.12 0.11 0.10 0.08 0.09 0.09 0.10 0.12 0.17 0.21 0.25 0.32 0.41 0.50 0.59 0.67 0.76 0.90 1.19 1.43 1.45 1.34 1.30 1.48 1.70 1.72 1.38 1.02 0.79 0.70 0.70
0.17 0.16 0.14 0.13 0.12 0.13 0.13 0.12 0.10 0.08 0.07 0.07 0.08 0.08 0.09 0.13 0.16 0.21 0.27 0.34 0.43 0.51 0.61 0.74 0.87 1.10 1.39 1.51 1.45 1.34 1.35 1.47 1.57 1.50 1.43 1.14 0.71 0.47